Disclaimer

Please do not use the information listed here in-flight or in-navigation, as they are not provided to us by the airports but are provided by volunteers, so they might be outdated.

Search


Regions


Airport information page

Radio informations:
HYERES TWR - 121.0 MHz
HYERES GND - 121.8 MHz
HYERES ATIS - 129.65 MHz
HYERES RDR - 362.55 MHz
TOULON APP - 118.825 MHz

Airport informations:
Latitude: 43° 05' 50.44" N
Longitude: 006° 08' 45.70" E
Elevation: 7 feet - 2 meters
Operating hours: Remarks
Operating agency: Military
Timezone: UTC+1(+2DT) - Last Sunday in March to last Sunday in October
Fuel: Jet A1, without icing nhibitor.

100/130 MIL Spec, low lead, aviation gasoline (BLUE)

Runway information:
05/23 - 6955 x 148 feet< - >2120 x 45 meters
14/32 - 6234 x 164 feet< - >1900 x 50 meters

Recent METARs:
LFTH 212130Z AUTO 31006KT CAVOK 04/02 Q1013 NOSIG
LFTH 212200Z AUTO 32006KT CAVOK 04/02 Q1013 NOSIG
LFTH 212230Z AUTO 31006KT CAVOK 04/01 Q1013 NOSIG

Airport on the map: